Savanna, IL

9:35 AM CST on February 23, 2017 (GMT -0600)
Tri-Township

Weather History for KSFY - October, 2014

Change the Weather History Date:

Friday, October 3, 2014

  Actual Average (KCWI) Record (KCWI)
Temperature  
Mean Temperature 53 °F -  
Max Temperature 63 °F 70 °F 93 °F (1997)
Min Temperature 43 °F 47 °F 28 °F (1987)
Degree Days  
Heating Degree Days 12    
Growing Degree Days 3 (Base 50)    
Moisture  
Dew Point 41 °F    
Average Humidity 69    
Maximum Humidity 93    
Minimum Humidity 45    
Precipitation  
Precipitation 0.86 in - - ()
Sea Level Pressure  
Sea Level Pressure 29.76 in    
Wind  
Wind Speed 12 mph (WNW)    
Max Wind Speed 21 mph    
Max Gust Speed 31 mph    
Visibility 9 miles    
Events Rain    
Averages and records for this station are not official NWS values.
T = Trace of Precipitation, MM = Missing Value Source: NWS Daily Summary

Daily Weather History Graph

Daily Weather History Graph

Search for Another Location

Airport or City:

Trip Planner

Search our weather history database for the weather conditions in past years. The results will help you decide how hot, cold, wet, or windy it might be!

Date:

Astronomy

Oct. 03, 2014 Rise Set
Actual Time 6:59 AM CDT 6:38 PM CDT
Civil Twilight 6:31 AM CDT 7:06 PM CDT
Nautical Twilight 5:59 AM CDT 7:38 PM CDT
Astronomical Twilight 5:26 AM CDT 8:11 PM CDT
Moon 3:36 PM CDT (10/3) 1:15 AM CDT (10/3)
Length of Visible Light 12h 34m
Length of Day
11h 38m
Waxing Gibbous, 71% of the Moon is Illuminated
Oct 3
Waxing Gibbous
Oct 8
Full
Oct 15
Last Quarter
Oct 23
New
Oct 30
First Quarter

Hourly Weather History & Observations

Time (CDT) Temp. Windchill Dew Point Humidity Pressure Visibility Wind Dir Wind Speed Gust Speed Precip Events Conditions
12:15 AM 63.9 °F - 61.5 °F 92% 29.60 in 5.0 mi South 3.5 mph - 0.01 in Rain Light Rain
12:35 AM 63.7 °F - 61.3 °F 92% 29.59 in 5.0 mi SSW 3.5 mph - 0.03 in Rain Rain
12:55 AM 63.9 °F - 61.7 °F 93% 29.58 in 4.0 mi SW 3.5 mph - 0.06 in Rain Rain
1:15 AM 63.0 °F - 60.8 °F 93% 29.58 in 5.0 mi NW 12.7 mph 18.4 mph 0.05 in Rain Rain
1:35 AM 60.6 °F - 58.1 °F 91% 29.58 in 5.0 mi NNW 10.4 mph 18.4 mph 0.11 in Rain Rain
1:55 AM 59.7 °F - 57.2 °F 91% 29.59 in 5.0 mi NW 17.3 mph 20.7 mph 0.17 in Rain Heavy Rain
2:15 AM 58.6 °F - 55.9 °F 91% 29.60 in 5.0 mi NNW 16.1 mph 21.9 mph 0.09 in Rain Heavy Rain
2:35 AM 57.4 °F - 54.9 °F 91% 29.60 in 2.5 mi NW 15.0 mph 24.2 mph 0.34 in Rain Heavy Rain
2:55 AM 57.2 °F - 54.5 °F 91% 29.60 in 5.0 mi NNW 11.5 mph 18.4 mph 0.42 in Rain Rain
3:15 AM 57.0 °F - 54.3 °F 91% 29.61 in 7.0 mi NW 13.8 mph 19.6 mph 0.04 in Rain Rain
3:35 AM 56.5 °F - 53.8 °F 91% 29.60 in 7.0 mi NNW 12.7 mph 19.6 mph 0.08 in Rain Rain
3:55 AM 56.3 °F - 53.6 °F 91% 29.59 in 7.0 mi NNW 12.7 mph 18.4 mph 0.13 in Rain Rain
4:15 AM 56.1 °F - 53.2 °F 90% 29.57 in 7.0 mi NW 13.8 mph 19.6 mph 0.04 in Rain Rain
4:35 AM 55.9 °F - 53.1 °F 90% 29.57 in 10.0 mi NW 10.4 mph 17.3 mph 0.07 in Rain Rain
4:55 AM 55.8 °F - 52.9 °F 90% - 10.0 mi NW 8.1 mph - 0.08 in Rain Light Rain
5:15 AM 55.9 °F - 52.9 °F 89% 29.58 in 10.0 mi NW 12.7 mph 17.3 mph N/A   Overcast
5:35 AM 56.3 °F - 53.1 °F 89% 29.60 in 10.0 mi NW 10.4 mph 16.1 mph N/A   Overcast
5:55 AM 55.4 °F - 51.8 °F 88% - 10.0 mi NW 13.8 mph 19.6 mph N/A   Mostly Cloudy
6:15 AM 55.4 °F - 50.9 °F 85% - 10.0 mi NW 11.5 mph 19.6 mph N/A   Scattered Clouds
6:35 AM 54.9 °F - 50.2 °F 84% - 10.0 mi NW 12.7 mph - N/A   Clear
6:55 AM 54.5 °F - 50.0 °F 85% - 10.0 mi NW 10.4 mph 16.1 mph N/A   Clear
7:15 AM 54.5 °F - 50.0 °F 85% - 10.0 mi WNW 9.2 mph - N/A   Scattered Clouds
7:35 AM 54.5 °F - 49.3 °F 83% - 10.0 mi WNW 13.8 mph - N/A   Overcast
7:55 AM 54.5 °F - 49.1 °F 82% - 10.0 mi WNW 10.4 mph 19.6 mph N/A   Overcast
8:15 AM 54.5 °F - 48.7 °F 81% - 10.0 mi WNW 10.4 mph - N/A   Overcast
8:35 AM 54.9 °F - 48.6 °F 79% - 10.0 mi WNW 12.7 mph 21.9 mph N/A   Overcast
8:55 AM 54.9 °F - 48.6 °F 79% - 10.0 mi WNW 15.0 mph 20.7 mph N/A   Overcast
9:15 AM 55.2 °F - 47.5 °F 75% - 10.0 mi WNW 13.8 mph 23.0 mph N/A   Overcast
9:35 AM 53.4 °F - 45.9 °F 76% - 10.0 mi WNW 19.6 mph 28.8 mph N/A   Overcast
9:55 AM 52.2 °F - 44.8 °F 76% - 10.0 mi West 15.0 mph 27.6 mph N/A   Overcast
10:15 AM 51.1 °F - 43.0 °F 74% - 10.0 mi WNW 17.3 mph 25.3 mph N/A   Overcast
10:35 AM 51.8 °F - 41.9 °F 69% - 10.0 mi WNW 16.1 mph 26.5 mph N/A   Overcast
10:55 AM 52.9 °F - 42.1 °F 67% 29.76 in 10.0 mi WNW 19.6 mph 29.9 mph N/A   Overcast
11:15 AM 50.7 °F - 41.7 °F 71% 29.78 in 10.0 mi WNW 16.1 mph 26.5 mph N/A   Overcast
11:35 AM 49.8 °F - 39.7 °F 68% 29.79 in 10.0 mi West 18.4 mph 28.8 mph N/A   Overcast
11:55 AM 50.0 °F - 39.4 °F 67% 29.79 in 10.0 mi WNW 16.1 mph 26.5 mph N/A   Overcast
12:15 PM 50.0 °F - 39.0 °F 66% 29.80 in 10.0 mi WNW 19.6 mph 27.6 mph N/A   Overcast
12:35 PM 50.0 °F - 38.8 °F 66% 29.81 in 10.0 mi WNW 16.1 mph 25.3 mph N/A   Overcast
12:55 PM 50.0 °F - 37.4 °F 62% 29.81 in 10.0 mi WNW 16.1 mph 25.3 mph N/A   Overcast
1:15 PM 50.4 °F - 38.1 °F 63% 29.81 in 10.0 mi West 12.7 mph 23.0 mph N/A   Overcast
1:35 PM 50.4 °F - 38.7 °F 64% 29.81 in 10.0 mi West 17.3 mph 25.3 mph N/A   Overcast
1:55 PM 50.0 °F - 37.6 °F 62% 29.80 in 10.0 mi WNW 12.7 mph 26.5 mph N/A   Overcast
2:15 PM 50.2 °F - 37.4 °F 62% 29.80 in 10.0 mi WNW 20.7 mph 26.5 mph N/A   Overcast
2:35 PM 50.4 °F - 36.7 °F 59% 29.81 in 10.0 mi West 15.0 mph 27.6 mph N/A   Overcast
2:55 PM 50.5 °F - 36.9 °F 59% 29.81 in 10.0 mi WNW 13.8 mph 23.0 mph N/A   Overcast
3:15 PM 50.5 °F - 36.0 °F 57% 29.81 in 10.0 mi WNW 19.6 mph 28.8 mph N/A   Overcast
3:35 PM 50.9 °F - 36.5 °F 58% 29.81 in 10.0 mi WNW 13.8 mph 25.3 mph N/A   Overcast
3:55 PM 50.5 °F - 36.0 °F 57% 29.81 in 10.0 mi WNW 19.6 mph 31.1 mph N/A   Overcast
4:15 PM 50.9 °F - 36.1 °F 57% 29.81 in 10.0 mi WNW 17.3 mph 24.2 mph N/A   Overcast
4:35 PM 50.9 °F - 34.7 °F 54% 29.82 in 10.0 mi West 15.0 mph 24.2 mph N/A   Overcast
4:55 PM 50.5 °F - 33.6 °F 52% 29.83 in 10.0 mi West 20.7 mph 29.9 mph N/A   Overcast
5:15 PM 50.2 °F - 32.9 °F 52% 29.83 in 10.0 mi WNW 18.4 mph 24.2 mph N/A   Overcast
5:35 PM 50.0 °F - 30.9 °F 48% 29.83 in 10.0 mi WNW 19.6 mph 31.1 mph N/A   Overcast
5:55 PM 49.5 °F - 31.3 °F 50% 29.85 in 10.0 mi WNW 18.4 mph 27.6 mph N/A   Overcast
6:15 PM 49.1 °F - 31.8 °F 51% 29.85 in 10.0 mi West 15.0 mph 21.9 mph N/A   Overcast
6:35 PM 48.4 °F - 30.7 °F 51% 29.86 in 10.0 mi WNW 20.7 mph 28.8 mph N/A   Overcast
6:55 PM 48.2 °F - 30.0 °F 49% 29.86 in 10.0 mi WNW 12.7 mph 27.6 mph N/A   Overcast
7:15 PM 47.7 °F - 29.8 °F 50% 29.87 in 10.0 mi WNW 15.0 mph 21.9 mph N/A   Overcast
7:35 PM 47.3 °F - 29.1 °F 49% 29.87 in 10.0 mi WNW 16.1 mph 27.6 mph N/A   Overcast
7:55 PM 46.8 °F - 27.0 °F 46% 29.87 in 10.0 mi West 15.0 mph 27.6 mph N/A   Overcast
8:15 PM 46.4 °F 40.4 °F 26.6 °F 46% 29.88 in 10.0 mi WNW 13.8 mph 26.5 mph N/A   Overcast
8:35 PM 46.0 °F 40.2 °F 25.7 °F 45% 29.88 in 10.0 mi West 12.7 mph 24.2 mph N/A   Overcast
8:55 PM 45.7 °F 39.1 °F 26.1 °F 46% 29.87 in 10.0 mi West 15.0 mph 21.9 mph N/A   Overcast
9:15 PM 45.5 °F 39.2 °F 26.4 °F 47% 29.87 in 10.0 mi West 13.8 mph 21.9 mph N/A   Overcast
9:35 PM 45.0 °F 39.3 °F 26.2 °F 48% 29.87 in 10.0 mi West 11.5 mph 21.9 mph N/A   Overcast
9:55 PM 44.6 °F 38.1 °F 26.8 °F 50% 29.86 in 10.0 mi West 13.8 mph 19.6 mph N/A   Overcast
10:15 PM 44.1 °F 38.1 °F 27.5 °F 52% 29.86 in 10.0 mi West 11.5 mph 18.4 mph N/A   Mostly Cloudy
10:35 PM 43.9 °F 37.9 °F 27.9 °F 53% 29.85 in 10.0 mi West 11.5 mph - N/A   Scattered Clouds
10:55 PM 43.7 °F 37.3 °F 27.7 °F 53% 29.84 in 10.0 mi West 12.7 mph 19.6 mph N/A   Clear
11:15 PM 43.7 °F 37.3 °F 26.2 °F 50% 29.83 in 10.0 mi West 12.7 mph 20.7 mph N/A   Mostly Cloudy
11:35 PM 43.9 °F 37.5 °F 26.2 °F 50% 29.83 in 10.0 mi West 12.7 mph 18.4 mph N/A   Overcast
11:55 PM 43.9 °F 37.5 °F 26.1 °F 50% 29.82 in 10.0 mi West 12.7 mph 19.6 mph N/A   Overcast